Погода в Липовке

Россия / Тамбовская область     52°33′22″N   42°01′40″E
темп.,
°C
ветер,
м/с
пор.,
м/с
влажн.,
%
обл.,
%
осадки,
мм/ч
давл.,
гПа
погр.,
м
22 апреля, чт
чт2200:00+6ююв499421 0.1 1017203
03:00+5ююз411935 0.3 1017230
06:00+5юз49935 0.0 1019285
09:00+9зюз46705 0.0 1020626
12:00+13зюз575663 0.0 10211663
15:00+13зюз4652100 0.1 10201822
18:00+12ююз236251 0.0 102172
21:00+10ююв336499 0.0 102240
23 апреля, пт
пт2300:00+10ю3359100 0.0 102130
03:00+9ююв346694 0.0 102153
06:00+9ююв347489 0.0 102279
09:00+11ююв356798 0.0 1022241
12:00+16ю4542100 0.1 10202417
15:00+16ю454389 0.1 10191938
18:00+13ююв5868100 0.3 1018380
21:00+10ююв4108441 0.6 1017260
24 апреля, сб
сб2400:00+8ююв411923 0.0 1016240
03:00+7ююв499218 0.0 1013161
06:00+8ю488991 0.2 1012255
09:00+11юз5774100 1.3 1011658
12:00+11юз81075100 1.3 10091337
15:00+5зсз4895100 4.3 1011593
18:00+7зюз367798 0.6 1011656
21:00+5зюз5886100 1.3 1012548
25 апреля, вс
вс2500:00+4юз488894 0.4 1012183
03:00+3зюз358811 0.4 101388
06:00+2зюз38865 0.0 1014209
09:00+7з686352 0.0 10141212
12:00+9зюз71047100 0.3 10152333
15:00+9зюз71242100 0.4 10152600
18:00+7з5115978 0.1 10161276
21:00+4юз38806 0.1 1017188
26 апреля, пн
пн2600:00+3юз33825 0.0 101752
03:00+3з358994 0.1 1016310
06:00+3ююз2694100 0.1 1016358
09:00+3юз3594100 2.6 1015354
12:00+4юз5790100 1.1 1015664
15:00+8зюз585178 2.8 10131787
18:00+7зюз585329 0.1 1013499
21:00+3зюз387866 0.3 1014157